FENGYUN 1C DEB, 32324

Orbit data source: Space-Track

FENGYUN 1C DEB, 32324 is space debris in SSO originally from a launch on Mon, 10 May 1999 UTC launched from the Taiyaun Space Center, China (TSC). Fengyun 1C debris stems from the Chinese weather satellite Fengyun-1C, which was intentionally destroyed by a Chinese anti-satellite missile in 2007. This event dramatically increased the amount of space debris, with thousands of trackable fragments posing hazards to satellites and human spaceflight. The Fengyun 1C debris cloud has become a focal point in discussions about space sustainability and the need for international regulations to prevent the creation of new debris.

Loading next visibility...
Identifier
32324, 1999-025CXR
Orbit
SSO
Country
Flag of CNCN / PRC
Related business
Manufacturer
Unknown
Mission
Spacecraft
Bus & Motor
Unknown
Mass
Unknown
Launch date (UTC)
1999-05-10 (26 years ago)
Launch vehicle
Unknown
Launch site
Taiyaun Space Center, China (TSC)
Object type
Payload
Rocket body
Debris
Shape & HBR
Unknown shape, 0.1 m
Radar Cross Section
Small (<0.1 m²)

Expand to show TLE details & history
Last TLE update: 4 days ago

TLE from 4 days ago
0 FENGYUN 1C DEB
1 32324U 99025CXR 25306.03854285  .00001015  00000-0  60666-3 0  9994
2 32324  99.5333  45.4554 0051312 135.5785 224.9515 14.09035687634252
Epoch: 2025-11-02T00:55Z
TLE epoch observation values (Epoch: 2025-11-02T00:55:30.102Z)
Latitude
-0.00007°
Longitude
-9.98002°
Altitude
891.94 km
Speed
7.393 km/s
True Right ascension
03h 01m 49s
True Declination
0° 00' 00"
Sunlit
Object was in full shadow at epoch
Visualization orbit readout
Latitude
Unknown
Longitude
Unknown
Altitude
Unknown
Speed
Unknown
Apparent Right ascension
Unknown
Apparent Declination
Unknown
Sunlit
N/A
Visualization observer readout
Local Sidereal Time
08:17:19
Azimuth
Unknown
Elevation
Unknown
Doppler factor
Unknown
Orbital elements
Apogee altitude
897.027 km
Perigee altitude
822.748 km
Semi-major axis
7,238.025 km
Eccentricity
0.00513
Inclination
99.5333°
RAAN
45.4554°
Arg. of periapsis
135.5785°
True anomaly
224.53796°
Mean anomaly
224.9515°
Eccentric anomaly
224.74454°
Mean motion
3.52463 °/min
Orbital period
102.14 mins
BSTAR
0.00060666
Loading maneuver chart data...
Computing Atmospheric mass density...

Documentation

Showing up to 5 results
|